Location: Beekmeers
(50.8953°N, 3.6968°E)
Time: 14:57:13
(UTC+00:00)

Cosmos 2082 Rocket - Pass Details

Date: 23 May 2024
Orbit: 832 x 853 km, 71.0° (Epoch: 16 June)

Event Time Altitude Azimuth Distance (km) Brightness Sun altitude
Exits shadow 00:07:00 28° 159° (SSE) 1,557 3.1 -18.3°
Maximum altitude 00:09:25 42° 109° (ESE) 1,204 2.9 -18.2°
Drops below altitude 10° 00:14:45 10° 40° (NE) 2,492 5.5 -18.1°
Sets 00:17:19 0° 34° (NE) 3,431 6.5 -18.0°
